Weather in Ipatovo

Russia / Stavropol Krai     45°43′02″N   42°54′40″E
temp.,
°C
wind,
m/s
gust,
m/s
humid.,
%
clouds,
%
prec.,
mm/h
press.,
hPa
HPBL,
m
18 august, thu
thu1800:00+28wnw34430 0.0 100863
03:00+26nnw34465 0.0 100862
06:00+24nnw39563 0.0 1008258
09:00+30nnw4442100 0.5 1008919
12:00+32nnw653990 0.3 10081449
15:00+34nnw54360 0.3 10071727
18:00+32nnw8837100 0.0 10061070
21:00+22nw71377100 1.8 1008471
19 august, fri
fri1900:00+22nnw41183100 3.5 1009408
03:00+22sse2577100 6.2 1009229
06:00+22wnw1181100 1.3 100997
09:00+26n355735 1.3 1009704
12:00+30nne554479 0.3 10091377
15:00+32ne5632100 0.5 10081596
18:00+29nnw3540100 1.1 1007195
21:00+27ese101645100 1.1 1007413
20 august, sat
sat2000:00+25se81448100 0.1 1010586
03:00+24e5135399 0.1 1011557
06:00+23ese31157100 0.0 1011490
09:00+28ese9114787 0.1 10121407
12:00+32ese111430100 0.1 10112204
15:00+31e121530100 0.1 10111956
18:00+28ese111534100 0.0 10131226
21:00+25e101733100 0.0 1014942
21 august, sun
sun2100:00+23e91650100 0.0 1014858
03:00+22e81651100 0.0 1013776
06:00+23e91650100 0.0 10131035
09:00+27ese121837100 0.0 10121413
12:00+31ese131622100 0.0 10112035
15:00+31ese121519100 0.0 10112054
18:00+28ese10142690 0.0 10121584
21:00+23e916415 0.0 1013959
22 august, mon
mon2200:00+22e1018435 0.0 1011943
03:00+22e918545 0.0 10111013
06:00+23e1019545 0.0 10111174
09:00+28ese1319345 0.0 10111736
12:00+32ese1417230 0.0 10112272
15:00+32ese1315211 0.0 10112211
18:00+29ese11162324 0.0 10121664
21:00+24ese1017300 0.0 10141005